Change the Weather History Date:

Thursday, May 10, 2012

  Actual Average Record
Temperature  
Mean Temperature 70 °F 72 °F  
Max Temperature 82 °F 81 °F 94 °F (1896)
Min Temperature 57 °F 62 °F 42 °F (1961)
Degree Days  
Heating Degree Days 0 0  
Month to date heating degree days 0 6  
Since 1 July heating degree days 1659 2268  
Cooling Degree Days 5 7  
Month to date cooling degree days 117 59  
Year to date cooling degree days 413 171  
Growing Degree Days 19 (Base 50)    
Moisture  
Dew Point 53 °F    
Average Humidity 58    
Maximum Humidity 86    
Minimum Humidity 30    
Precipitation  
Precipitation T in 0.15 in 5.26 in (1968)
Month to date precipitation 0.84 1.55  
Year to date precipitation 15.21 15.71  
Snow  
Snow 0.00 in - - ()
Month to date snowfall 0.0  
Since 1 July snowfall 0.0  
Snow Depth 0.00 in    
Sea Level Pressure  
Sea Level Pressure 29.92 in    
Wind  
Wind Speed 6 mph (SE)    
Max Wind Speed 17 mph    
Max Gust Speed 22 mph    
Visibility 10 miles    
Events Rain    
T = Trace of Precipitation, MM = Missing Value Source: NWS Daily Summary

Daily Weather History Graph

Daily Weather History Graph

Search for Another Location

Airport or City:

Trip Planner

Search our weather history database for the weather conditions in past years. The results will help you decide how hot, cold, wet, or windy it might be!

Date:

Astronomy

May. 10, 2012 Rise Set
Actual Time 6:26 AM CDT 8:09 PM CDT
Civil Twilight 6:00 AM CDT 8:36 PM CDT
Nautical Twilight 5:28 AM CDT 9:08 PM CDT
Astronomical Twilight 4:54 AM CDT 9:42 PM CDT
Moon 12:07 AM CDT (5/10) 10:52 AM CDT (5/10)
Length of Visible Light 14h 36m
Length of Day
13h 42m
Waning Gibbous, 73% of the Moon is Illuminated
May 10
Waning Gibbous
May 12
Last Quarter
May 20
New
May 28
First Quarter
Jun 4
Full

Hourly Weather History & Observations

Time (CDT) Temp. Dew Point Humidity Pressure Visibility Wind Dir Wind Speed Gust Speed Precip Events Conditions
12:53 AM 62.1 °F 55.9 °F 80% 29.97 in 10.0 mi Calm Calm - N/A   Clear
1:53 AM 61.0 °F 55.0 °F 81% 29.96 in 10.0 mi Calm Calm - N/A   Clear
2:53 AM 60.1 °F 55.0 °F 83% 29.95 in 10.0 mi Calm Calm - N/A   Clear
3:53 AM 59.0 °F 54.0 °F 83% 29.94 in 10.0 mi NNE 3.5 mph - N/A   Clear
4:53 AM 60.1 °F 53.1 °F 78% 29.93 in 10.0 mi Calm Calm - N/A   Clear
5:53 AM 57.9 °F 53.1 °F 84% 29.93 in 10.0 mi Calm Calm - N/A   Clear
6:53 AM 57.0 °F 53.1 °F 87% 29.95 in 10.0 mi Calm Calm - N/A   Clear
7:53 AM 63.0 °F 55.0 °F 75% 29.97 in 9.0 mi Calm Calm - N/A   Clear
8:53 AM 71.1 °F 55.9 °F 59% 29.97 in 10.0 mi South 6.9 mph - N/A   Clear
9:53 AM 75.0 °F 54.0 °F 48% 29.98 in 10.0 mi SSE 6.9 mph - N/A   Clear
10:53 AM 77.0 °F 50.0 °F 39% 29.96 in 10.0 mi ESE 9.2 mph - N/A   Clear
11:53 AM 80.1 °F 46.9 °F 31% 29.96 in 10.0 mi SE 9.2 mph 18.4 mph N/A   Clear
12:53 PM 80.1 °F 48.0 °F 32% 29.94 in 10.0 mi ESE 8.1 mph 18.4 mph N/A   Clear
1:53 PM 81.0 °F 46.9 °F 30% 29.92 in 10.0 mi ESE 8.1 mph - N/A   Clear
2:53 PM 81.0 °F 48.9 °F 33% 29.91 in 10.0 mi SE 10.4 mph 16.1 mph N/A   Clear
3:53 PM 80.1 °F 50.0 °F 35% 29.89 in 10.0 mi SSE 9.2 mph - N/A   Clear
4:53 PM 79.0 °F 51.1 °F 38% 29.86 in 10.0 mi ESE 9.2 mph - N/A   Clear
5:53 PM 78.8 °F 51.8 °F 39% 29.86 in 10.0 mi ESE 11.5 mph - N/A   Clear
6:53 PM 77.0 °F 53.1 °F 43% 29.87 in 10.0 mi SE 9.2 mph - N/A   Clear
7:53 PM 75.0 °F 55.0 °F 50% 29.87 in 10.0 mi SE 6.9 mph - N/A   Clear
8:53 PM 73.9 °F 55.0 °F 52% 29.86 in 10.0 mi East 5.8 mph - N/A   Mostly Cloudy
9:53 PM 73.9 °F 54.0 °F 50% 29.89 in 10.0 mi SE 6.9 mph - N/A   Overcast
10:53 PM 73.9 °F 53.1 °F 48% 29.88 in 10.0 mi ESE 8.1 mph - N/A   Overcast
11:53 PM 73.0 °F 54.0 °F 51% 29.89 in 10.0 mi ESE 9.2 mph - 0.00 in Rain Light Rain